Zurück zum Katalog

STARLINK-31551

AktivKommunikationVLEO
NORAD 59191·PAYLOAD·🇺🇸 United States

Gestartet Mar 10, 2024 von Cape Canaveral Space Force Station

Loading…

Nächste Überflüge (nächste 24 Stunden)

TLE

AktuellSource: CelesTrak SupGP

Epoche: Sep 14, 2026, 22:41 UTC

1 59191C 24045P   26257.94562500  .00039100  00000+0  14164-2 0  2570
2 59191  43.0006  99.9453 0001429 276.5676 299.8144 15.27554076    14

Verfolge STARLINK-31551 in Echtzeit mit AllMySat

Download on the App Store